{"data":{"norad_id":42740,"epoch":"2026-09-19T21:46:16.203072Z","epoch_age_seconds":76921,"freshness":"FRESH","line1":"1 42740U 17029A   26262.90713198 -.00000269  00000+0  00000+0 0  9998","line2":"2 42740   0.0200 245.0875 0000991 253.2489 117.1229  1.00272291 34143","mean_motion":1.00272291,"eccentricity":9.91e-5,"inclination_deg":0.02,"raan_deg":245.0875,"arg_perigee_deg":253.2489,"mean_anomaly_deg":117.1229,"bstar":0,"rev_number":3414,"period_min":1436.0896571118,"perigee_km":35782.274600739,"apogee_km":35790.631622499,"semimajor_km":42164.590111619,"source":"CELESTRAK","updated_at":"2026-09-20T09:00:35.253963Z"}}